Home   Weather   Des Moines   Past weeks

Flag for USA Past Weather in Des Moines, Iowa, USA — Yesterday and Last 2 Weeks

Now
95 °F

Partly sunny.


Feels Like: 105 °F
Forecast: 78 / 99 °F
Wind: 5 mph from West

Location: Des Moines International Airport

Current Time: Jul 20, 2017 at 8:04:52 pm

Latest Report: Jul 20, 2017 at 6:54 pm


Visibility: 10 mi

Pressure: 29.87 "Hg

Humidity: 49%

Dew Point: 73 °F

Location of Des MoinesLocation

Past Weather in Des Moines — Graph

°F

Des Moines Temperature Yesterday

Maximum temperature yesterday: 96 °F (at 2:54 pm)
Minimum temperature yesterday: 77 °F (at 5:54 am)
Average temperature yesterday: 85 °F

High & Low Weather Summary for the Past Weeks

 TemperatureHumidityPressure
High99 °F (Jul 20, 4:54 pm)96% (Jul 11, 6:54 am)30.18 "Hg (Jul 11, 6:54 am)
Low64 °F (Jul 14, 5:54 am)37% (Jul 7, 2:54 pm)29.70 "Hg (Jul 10, 3:54 am)
Average81 °F67%29.95 "Hg
* Reported Jul 5 6:54 pm — Jul 20 6:54 pm, Des Moines. Weather by CustomWeather, © 2017

Note: Actual official high and low records may vary slightly from our data, if they occured in-between our weather recording intervals... More about our weather records

Advertising

Des Moines Weather History for the Previous 24 Hours

Scroll right to see more
 ConditionsComfort  
Time TempWeatherWind HumidityBarometerVisibility
6:54 pm
Thu, Jul 20
95 °FPartly sunny.5 mph49%29.87 "Hg10 mi
5:54 pm99 °FPartly sunny.7 mph43%29.88 "Hg10 mi
4:54 pm99 °FPassing clouds.5 mph43%29.87 "Hg10 mi
3:54 pm98 °FScattered clouds.7 mph45%29.89 "Hg10 mi
2:54 pm96 °FScattered clouds.6 mph46%29.90 "Hg10 mi
1:54 pm94 °FScattered clouds.3 mph51%29.91 "Hg10 mi
12:54 pm92 °FScattered clouds.6 mph54%29.92 "Hg10 mi
11:54 am91 °FPartly sunny.7 mph56%29.93 "Hg10 mi
10:54 am90 °FBroken clouds.7 mph56%29.93 "Hg10 mi
9:54 am88 °FBroken clouds.8 mph61%29.93 "Hg10 mi
8:54 am86 °FScattered clouds.12 mph61%29.93 "Hg10 mi
7:54 am83 °FScattered clouds.10 mph68%29.92 "Hg10 mi
6:54 am81 °FPartly sunny.15 mph72%29.90 "Hg10 mi
5:54 am81 °FPassing clouds.9 mph72%29.91 "Hg10 mi
4:54 am82 °FPassing clouds.12 mph70%29.89 "Hg10 mi
3:54 am83 °FPartly cloudy.12 mph70%29.90 "Hg10 mi
2:54 am84 °FMostly cloudy.9 mph70%29.91 "Hg10 mi
1:54 am84 °FOvercast.13 mph70%29.89 "Hg10 mi
12:54 am84 °FMostly cloudy.13 mph74%29.88 "Hg10 mi
11:54 pm
Wed, Jul 19
83 °FMostly cloudy.16 mph79%29.88 "Hg10 mi
10:54 pm82 °FPassing clouds.10 mph77%29.92 "Hg10 mi
9:54 pm83 °FPassing clouds.9 mph74%29.94 "Hg10 mi
8:54 pm85 °FPartly cloudy.9 mph70%29.93 "Hg10 mi
8:12 pm86 °FPartly sunny.13 mph70%29.94 "Hg10 mi
Weather by CustomWeather, © 2017

See weather overviewHow to use our weather pages